Tracking 35274 objects as of 10-Sep-2026
HD Live streaming from Space Station
objects crossing your sky now

COSMOS 880 DEB


COSMOS 880 DEB is no longer on orbit


NORAD ID: 11220
Int'l Code: 1976-120AX
Launch date: December 9, 1976
Source: Commonwealth of Independent States (former USSR) (CIS)
Launch site: PLESETSK MISSILE AND SPACE COMPLEX (PKMTR)
Decay date: 1983-05-19

Note: This is SATELLITE DEBRIS
Your satellite tracking list
Your tracking list is empty




NASA's NSSDC Master Catalog

Two Line Element Set (TLE):
1 11220U 76120 AX 83139.21455490  .09550272 +29981-4 +15017-3 0  9996
2 11220 065.8237 223.3852 0012963 298.7897 079.0816 16.47396984357299
Source of the keplerian elements: AFSPC